LiveATC.Net - Listen to live air traffic control over the Internet!


ICAO: ESVQ  IATA:   Airport: Koping Airport
City: Koping
Country: Sweden   Continent: Europe
ESOW METAR Weather: ESOW 211420Z 10008KT 9999 FEW038 BKN042 M01/M09 Q1025 R19/91//95
ESVQ Flight Activity (FlightAware)
ESVQ Webcam:  (Airport Webcams) 

ESVQ CTAF
Feed Status: UP   Listeners: 0
Listen in your browser - HTML5 player (in browser, HTML5)
Click here to listen with your own player (launches your MP3 player)
ESVQ CTAF Audio Archives
FacilityFrequency
Koping CTAF123.150

NOTICE

Unauthorized use prohibited. See LiveATC.net Terms of Service


Find LiveATC Audio Streams


Airport/ARTCC Code

Frequency Search
(e.g., 124.400, 128.75)
Site-wide search
 


Browse LiveATC Feeds
Top 50 LiveATC Feeds
LiveATC Feed Map
Bad Weather Areas

LiveATC FAQ
Offer LiveATC feed
Contact LiveATC.net
Press Inquiries

LiveATC on iPhone
LiveATC on Android

Windows Phone
Windows 8/10

LiveATC Mobile
(Mobile browser)

ATC Audio Archives
Interesting Recordings

LiveATC Forums


Home Page
About LiveATC.net
Make a Donation
Terms of Use
Privacy Policy

Canadian Air Freqs

AIRMETs/SIGMETs

FAA Airport Status
Nat'l Airspace Status
Arrival Demand Charts


Server Software By:
Icecast.org
Liquidsoap